Location: Pieve a Presciano
(43.4500°N, 11.6667°E)
Time: 06:19:25
(UTC+00:00)

Daily predictions for brighter satellites

Satellite Brightness Start Highest point End
(mag) Time Altitude Azimuth Time Altitude Azimuth Time Altitude Azimuth
Cosmos 676 Rocket 4.5 18:39:11 10° S 18:44:09 41° ESE 18:49:08 10° NE
Cosmos 972 4.4 18:42:10 10° NNW 18:47:12 86° ENE 18:52:04 10° SSE
MOS 1 4.4 18:42:09 10° SSE 18:47:43 64° ENE 18:53:20 10° N
CZ-2C R/B 4.0 18:45:28 10° S 18:50:03 46° W 18:54:37 10° NNW
Genesis I 3.2 18:46:29 10° NNW 18:50:21 75° NE 18:54:14 10° SE
Cosmos 1934 Rocket 4.5 18:45:03 10° SSE 18:50:55 41° E 18:56:47 10° NNE
USA 276 3.9 18:51:14 10° NW 18:53:59 26° N 18:56:43 10° ENE
X-37B 0.9 18:51:28 10° W 18:54:36 64° N 18:57:44 10° E
Cosmos 1980 Rocket 2.4 18:49:31 10° NNW 18:55:08 59° ENE 19:00:41 10° SE
IRIDIUM 104 4.3 18:52:08 10° S 18:57:19 78° E 19:02:34 10° N
Lacrosse 5 2.8 18:53:02 10° NW 18:57:48 39° NNE 19:02:32 10° E
CZ-2C R/B 4.3 18:55:20 10° NNE 18:59:31 35° E 19:03:35 10° SSE
Resurs 01 Rocket 2.7 18:57:33 10° SE 19:01:22 29° ENE 19:05:11 10° N
Cosmos 1833 Rocket 3.5 18:56:42 10° SW 19:02:13 58° WNW 19:07:48 10° NNE
USA 238 DEB 3.6 18:59:03 10° SSW 19:05:33 68° ESE 19:12:21 10° NE
USA 238 3.6 18:59:09 10° SSW 19:05:39 67° ESE 19:12:27 10° NE
SPOT 3 Rocket 3.9 19:01:11 10° SE 19:06:11 50° ENE 19:11:11 10° N
IRIDIUM 114 4.4 19:01:15 10° S 19:06:28 87° W 19:11:43 10° N
Cosmos 1697 Rocket 3.2 19:01:57 10° NNW 19:07:29 61° WSW 19:12:59 10° S
Cosmos 1867 3.8 19:02:18 10° SW 19:07:45 77° NW 19:13:14 10° NNE
GP-B 4.3 19:04:33 10° NNE 19:08:09 24° E 19:11:09 13° SE
MOS 1 Rocket 4.3 19:03:48 10° N 19:09:07 58° WNW 19:14:13 10° SSW
CENTAUR R/B 2.8 19:03:56 10° S 19:09:18 42° ESE 19:15:34 10° NE
Cosmos 1666 Rocket 3.5 19:05:12 10° S 19:09:29 70° E 19:13:49 10° NNE
Cosmos 1954 Rocket 4.0 19:06:57 10° S 19:12:14 71° ESE 19:17:33 10° NNE
DMSP B5D2-2 4.0 19:10:16 10° NNE 19:15:32 83° ESE 19:20:48 10° SSW
FREGAT/IRIS 3.5 19:13:36 10° S 19:16:07 42° W 19:18:39 10° NNW
Cosmos 1821 Rocket 4.2 19:10:46 10° SSW 19:16:55 78° W 19:23:13 10° N
Ariane Rocket 3.6 19:12:05 10° S 19:17:04 59° WSW 19:22:04 10° NNW
Cosmos 405 Rocket 3.7 19:15:00 14° SE 19:17:26 25° E 19:20:34 10° NE
Intercosmos 25 3.3 19:16:22 10° NNW 19:19:54 64° W 19:23:02 10° S
Cosmos 1812 4.1 19:17:50 10° NNW 19:21:28 40° W 19:25:04 10° SSW
SJ-6B 3.7 19:21:11 10° S 19:25:06 51° W 19:28:58 10° NNW
Cosmos 1140 Rocket 4.5 19:23:39 10° SW 19:28:45 52° WNW 19:33:54 10° NNE
NOSS 2 (A) 3.9 19:26:53 10° NW 19:29:23 85° WSW 19:30:21 31° SSE
Cosmos 1763 Rocket 4.2 19:24:58 10° N 19:29:57 38° ENE 19:33:13 19° ESE
Resurs 1-3 3.6 19:25:45 10° SSE 19:30:08 86° ENE 19:34:33 10° NNW
Cosmos 1437 Rocket 4.2 19:27:56 10° NNE 19:30:50 21° ENE 19:31:55 18° E
OBJECT-B 1.0 19:29:41 11° S 19:32:47 73° WSW 19:36:05 10° NNW
Cosmos 2084 Rocket 3.4 19:30:20 10° SSW 19:34:25 56° ESE 19:38:36 10° NE
H-2A R/B 4.1 19:32:15 10° NNE 19:36:04 35° E 19:38:17 20° SSE
Cosmos 1633 Rocket 3.3 19:31:56 10° SSW 19:36:21 73° W 19:40:46 10° N
Cosmos 1184 Rocket 2.9 19:33:58 10° SSW 19:37:15 77° W 19:40:34 10° N
SPOT 5 4.5 19:38:25 13° E 19:39:44 15° ENE 19:42:17 10° NNE
Cosmos 921 Rocket 2.8 19:38:12 10° NNW 19:42:25 82° ENE 19:45:04 22° SSE
Cosmos 1535 Rocket 4.5 19:36:35 10° S 19:42:42 86° W 19:48:50 10° N
Cosmos 2123 Rocket 4.0 19:37:23 10° N 19:43:39 85° W 19:49:56 10° S
MetOp-B 4.3 19:40:53 20° SE 19:44:25 54° ENE 19:49:39 10° N
Cosmos 1605 Rocket 3.9 19:45:02 10° S 19:51:07 76° E 19:57:12 10° N
Meteor 1-19 Rocket 4.4 19:46:50 10° N 19:52:08 50° ENE 19:54:59 26° SE
Okean 1 3.5 19:50:43 10° N 19:54:42 54° E 19:56:09 34° SE
CZ-2C R/B 3.9 19:50:09 10° N 19:55:01 42° WNW 19:59:56 10° SW
NOSS 3-2 (A) 4.0 19:50:16 10° SW 19:55:52 58° NW 20:02:19 10° NNE
USA 267 3.4 19:52:04 10° ENE 19:58:22 49° SE 20:04:39 10° SSW
Cosmos 2219 Rocket 4.4 19:57:01 10° NNE 19:59:34 13° NE 20:02:06 10° ENE
Meteor 2-4 Rocket 4.4 19:55:34 10° N 20:00:42 36° ENE 20:02:35 28° ESE
Cosmos 540 Rocket 4.2 19:58:03 10° N 20:02:51 37° ENE 20:04:39 29° ESE
SL-16 R/B 2.3 19:58:10 10° NNW 20:03:49 63° ENE 20:06:28 31° SE
SL-4 R/B 4.0 20:00:38 10° WNW 20:03:53 24° N 20:06:56 10° NE
SL-27 R/B 2.2 20:04:27 56° SSE 20:04:54 64° ESE 20:08:11 10° NNE
BREEZE-M DEB (TANK) 3.8 20:02:10 10° WNW 20:04:57 39° N 20:11:50 10° ENE
Cosmos 1470 Rocket 4.0 20:01:49 10° SSW 20:06:10 62° W 20:10:31 10° N
NOSS 3-2 (C) 3.5 20:00:46 10° SW 20:06:25 76° NW 20:12:56 10° NE
Cosmos 2242 Rocket 3.5 20:02:56 10° N 20:07:22 77° E 20:09:08 36° SSE
Cosmos 2082 Rocket 4.2 20:06:07 10° WSW 20:11:04 30° NW 20:16:01 10° N
Cosmos 1459 Rocket 4.5 20:09:17 30° SE 20:11:35 41° E 20:17:28 10° NNE
BREEZE-M DEB (TANK) 3.6 20:10:25 10° NW 20:12:20 22° N 20:12:31 22° NNE
ERS-1 Rocket 3.5 20:16:14 36° ESE 20:17:32 43° ENE 20:22:17 10° N
Meteor 1-14 Rocket 4.2 20:13:21 18° S 20:17:53 79° E 20:23:53 10° NNE
Cosmos 2322 Rocket 2.2 20:15:27 10° NNW 20:21:10 70° ENE 20:23:14 40° SE
Cosmos 1850 Rocket 4.2 20:17:52 10° SSW 20:23:09 71° WNW 20:28:25 10° NNE
Cosmos 1500 3.6 20:25:35 45° ENE 20:25:35 45° ENE 20:28:39 10° NNE
SPOT 1/Viking Rocket 3.5 20:23:32 41° SSE 20:25:26 77° ENE 20:30:40 10° N
Terra 2.6 20:27:56 33° E 20:28:26 34° ENE 20:32:44 10° N
Cosmos 841 Rocket 3.6 20:23:23 10° NNW 20:28:37 64° ENE 20:29:56 47° SE
Cosmos 2360 Rocket 2.7 20:24:50 10° NNW 20:30:18 46° ENE 20:31:48 37° E
USA 276 2.6 20:27:29 10° WNW 20:30:10 57° NNW 20:30:10 57° NNW
IGS 5A 3.6 20:29:39 48° SSW 20:30:42 70° W 20:34:51 10° NNW
Meteor 1-18 Rocket 4.4 20:25:34 10° NNW 20:31:07 69° W 20:33:52 30° S
X-37B 1.7 20:28:09 10° W 20:30:22 39° W 20:30:22 39° W
ATLAS 3B R/B 2.5 20:24:56 10° SSW 20:31:24 62° ESE 20:37:55 10° NE
Cosmos 1238 Rocket 4.2 20:30:32 18° WSW 20:31:54 26° WNW 20:34:30 10° NNW
Okean 3 4.3 20:28:19 10° N 20:32:07 37° ENE 20:32:07 37° ENE
USA 234 4.0 20:29:00 21° E 20:33:06 45° NNE 20:39:15 10° NW
Cosmos 2237 4.5 20:28:54 10° NNW 20:34:31 54° ENE 20:35:58 43° ESE
Resurs 01 Rocket 3.4 20:34:56 15° SSW 20:37:48 28° W 20:41:37 10° NW
Iridium 4 Rocket 3.7 20:38:44 39° ENE 20:38:44 39° ENE 20:42:02 10° NNE
Cosmos 1980 Rocket 4.3 20:34:33 10° NW 20:38:37 21° W 20:42:40 10° SSW
Cosmos 44 3.3 20:34:33 10° NW 20:39:32 82° WSW 20:40:36 57° SSE
CARTOSAT-1 3.4 20:40:31 69° E 20:40:45 71° ENE 20:45:03 10° N
Lacrosse 5 2.4 20:36:00 10° WNW 20:40:51 47° SW 20:41:50 42° SSW
Cosmos 2061 Rocket 4.0 20:50:45 50° SE 20:51:44 56° E 20:57:46 10° NNE
Spot 2 Rocket 4.2 20:51:17 34° SSW 20:53:04 49° W 20:58:01 10° NNW
Cosmos 1814 Rocket 3.8 20:51:02 10° NNW 20:56:17 89° ENE 20:56:56 70° SSE
COSMOS 2428 4.0 20:51:48 10° N 20:56:39 27° NE 20:57:48 25° ENE
Cosmos 1802 Rocket 3.9 20:54:58 50° SSE 20:56:42 74° E 21:03:01 10° NNE
Cosmos 1869 Rocket 3.9 20:57:44 56° WSW 20:58:22 64° W 21:02:50 10° N
CENTAUR R/B 3.8 20:54:12 10° WSW 20:59:56 42° NW 21:06:41 10° NNE
Cosmos 2237 Rocket 4.4 20:57:53 10° NNE 21:00:35 13° NE 21:02:46 11° ENE
Okean 1-7 3.9 20:57:11 10° NNW 21:01:13 40° W 21:01:51 38° WSW
Cosmos 1437 Rocket 4.4 21:03:52 10° NW 21:07:04 26° W 21:07:19 26° W
ATLAS 5 CENTAUR R/B 2.8 21:11:43 10° NNW 21:14:46 55° NE 21:14:58 54° ENE
Cosmos 2333 Rocket 2.8 21:09:20 10° NNW 21:14:50 43° ENE 21:15:19 42° ENE
SPOT 5 3.1 21:17:39 54° W 21:17:39 54° W 21:21:42 10° NNW
Cosmos 1066 Rocket 4.3 21:16:02 10° N 21:21:30 62° ENE 21:21:30 62° ENE
Cosmos 1733 Rocket 4.0 21:29:41 45° NNE 21:29:41 45° NNE 21:32:47 10° N
Meteor 1-11 Rocket 3.8 21:31:46 64° WSW 21:32:26 71° WNW 21:38:14 10° N
Cosmos 968 Rocket 4.1 21:37:25 46° NE 21:37:25 46° NE 21:41:05 10° NNE
Lacrosse 4 Rocket 2.7 21:37:37 39° N 21:37:37 39° N 21:40:36 10° NNE
Tsikada Rocket 3.8 21:32:05 10° N 21:38:26 87° E 21:38:46 81° SSE
USA 267 3.8 21:35:04 10° NE 21:41:26 57° NNW 21:47:48 10° WSW
SL-4 R/B 4.0 21:40:55 10° NW 21:42:59 24° NNW 21:42:59 24° NNW
Cosmos 2219 Rocket 2.4 21:39:01 10° NNW 21:44:23 64° NE 21:44:23 64° NE
SL-16 R/B 4.0 21:43:26 10° NW 21:47:22 20° W 21:48:20 19° WSW
Cosmos 1725 Rocket 4.4 21:55:18 52° WSW 21:56:18 58° WNW 22:02:33 10° N
Meteor 1-23 Rocket 4.4 21:51:43 10° NNW 21:57:14 69° WNW 21:57:14 69° WNW
Cosmos 2322 3.9 21:52:24 10° NNW 21:57:25 64° WNW 21:57:25 64° WNW
Cosmos 2322 Rocket 4.2 22:00:56 10° WNW 22:04:33 17° W 22:05:03 17° WSW
Terra 3.5 22:06:49 26° W 22:06:49 26° W 22:10:15 10° NW
Cosmos 2360 Rocket 3.6 22:09:19 10° NW 22:13:33 27° W 22:13:33 27° W
USA 234 3.3 22:16:20 67° WSW 22:16:20 67° WSW 22:22:26 10° NW
SL-16 R/B 4.2 22:12:25 10° N 22:16:20 18° NE 22:17:41 17° ENE
ATLAS 3B R/B 4.1 22:16:36 10° WSW 22:22:28 33° NW 22:28:26 10° NNE
MOS 1-B Rocket 4.2 22:17:47 10° N 22:23:10 57° WNW 22:23:10 57° WNW
Cosmos 2297 Rocket 3.6 22:32:12 28° ENE 22:32:12 28° ENE 22:35:07 10° NE
Thor Agena Rocket 4.3 22:31:13 10° N 22:35:03 48° NNW 22:35:03 48° NNW
Cosmos 1980 4.3 22:32:20 10° NNW 22:36:58 54° NNE 22:36:58 54° NNE
Timation 2 Rocket 4.3 22:39:51 58° NE 22:39:51 58° NE 22:44:36 10° NNE
COSMOS 2428 3.6 22:35:39 10° NW 22:39:48 42° WNW 22:39:48 42° WNW
Cosmos 2219 4.2 22:46:31 39° NE 22:46:31 39° NE 22:50:03 10° NNE
Cosmos 1464 Rocket 4.2 22:46:12 67° NNE 22:46:12 67° NNE 22:51:29 10° N
Cosmos 2237 Rocket 2.8 22:40:07 10° NNW 22:44:34 53° N 22:44:34 53° N
NOSS 0 Rocket 4.3 22:46:45 10° NNW 22:51:50 59° NW 22:51:50 59° NW
Nadezhda 4 Rocket 4.3 22:49:31 10° N 22:54:56 62° NE 22:54:56 62° NE
Cosmos 2333 Rocket 3.8 22:53:58 10° NW 22:57:19 26° WNW 22:57:19 26° WNW
Cosmos 1092 Rocket 4.3 23:11:23 10° N 23:16:44 58° NE 23:16:44 58° NE
Cosmos 2034 Rocket 4.2 23:19:27 66° NNW 23:19:27 66° NNW 23:24:59 10° N
Cosmos 2227 Rocket 2.9 23:22:00 50° NNE 23:22:00 50° NNE 23:26:06 10° NNE
Cosmos 2219 Rocket 4.3 23:24:12 10° WNW 23:26:05 16° WNW 23:26:05 16° WNW
Resurs 1-4 Rocket 4.3 23:33:14 10° NE 23:35:32 15° ENE 23:35:32 15° ENE
Cosmos 2082 4.3 23:48:47 51° NNE 23:48:47 51° NNE 23:52:57 10° NNE
Cosmos 1607 4.3 23:42:12 10° NW 23:47:26 61° NW 23:47:26 61° NW
USA 229 DEB 4.0 23:53:16 52° E 23:53:16 52° E 23:58:50 10° NE
USA 229 4.0 23:53:24 51° E 23:53:24 51° E 23:58:55 10° NE
